Location: Banska Bystrica
(0.0000°N, 19.1500°E)
Time: 21:21:53
(UTC+01:00)

Daily predictions for brighter satellites

Satellite Brightness Start Highest point End
(mag) Time Altitude Azimuth Time Altitude Azimuth Time Altitude Azimuth
Centaur D-1AR AC-40 4.1 16:53:34 10° W 16:58:29 65° SSW 17:30:27 10° ESE
Centaur D-1AR AC-40 4.1 16:53:34 10° W 16:58:30 65° SSW 17:30:26 10° ESE
Centaur D-1AR AC-40 4.1 16:53:34 10° W 16:58:30 65° SSW 17:30:27 10° ESE
Centaur D-1AR AC-40 4.1 16:53:35 10° W 16:58:30 65° SSW 17:30:27 10° ESE
Centaur AC-102 3.6 17:47:23 10° WNW 17:52:20 65° NNE 17:59:40 10° E
ARIANE 5 R/B 1.9 18:03:00 10° W 18:05:15 59° N 18:12:09 10° E
COSMOS 2455 3.9 18:05:55 10° SW 18:11:37 46° WNW 18:17:20 10° N
Radarsat Rocket 4.2 18:06:47 10° SSE 18:12:39 45° ENE 18:18:09 10° N
Centaur D-1AR AC-48 3.1 18:10:41 10° W 18:15:56 32° NNW 18:19:09 11° NE
Gbstr 26 Del rocket 3.8 18:12:53 10° SW 18:18:51 70° WNW 18:23:37 10° NNE
Cosmos 2221 3.9 18:14:53 10° SSW 18:18:56 41° W 18:22:55 10° NNW
SL-16 R/B 3.5 18:13:37 10° NNW 18:18:58 45° WSW 18:24:20 10° S
Cosmos 2266 Rocket 4.4 18:14:36 10° SSE 18:20:28 42° E 18:26:12 10° NNE
SL-23 DEB 4.3 18:19:50 10° S 18:22:42 32° SE 18:24:34 18° ENE
Cosmos 1140 Rocket 3.7 18:18:05 10° N 18:22:58 47° ENE 18:27:51 10° SSE
CZ-4B R/B 3.8 18:20:48 10° S 18:26:02 76° WSW 18:31:11 10° NNW
NOAA 6 4.0 18:21:04 10° SSE 18:26:14 80° ENE 18:31:22 10° N
ARIANE 44P R/B 2.1 18:23:00 10° W 18:27:40 63° N 18:29:05 23° ENE
Ariane 42P Rocket 2.4 18:24:53 10° WSW 18:28:24 36° S 18:29:28 19° SE
Cosmos 1943 3.4 18:25:47 10° N 18:31:08 45° ENE 18:36:32 10° SSE
BLOCK DM-SL R/B 3.0 18:31:05 10° W 18:35:08 66° N 18:38:36 21° ENE
Cosmos 1110 Rocket 3.9 18:29:58 10° SSW 18:35:10 89° ESE 18:40:23 10° NNE
SME Rocket 4.1 18:32:47 10° SE 18:35:54 23° ENE 18:36:08 23° ENE
YAOGAN 1 3.0 18:32:22 10° SE 18:36:20 36° ENE 18:40:17 10° N
IGS 5A 3.8 18:32:34 10° SSE 18:36:24 40° E 18:40:12 10° N
Cosmos 1271 Rocket 3.7 18:37:03 25° E 18:37:12 25° E 18:40:25 10° SE
Yuri Rocket 4.5 18:34:58 10° W 18:38:51 34° SSW 18:42:42 10° SE
Cosmos 1943 Rocket 3.8 18:36:38 10° SE 18:39:49 15° ESE 18:39:56 15° ESE
HETE-2 4.5 18:36:17 10° W 18:40:19 70° N 18:42:10 30° ENE
H-2A ROCKET BODY 1.7 18:38:20 10° WNW 18:40:35 50° SSW 18:46:05 10° SE
Cosmos 44 3.3 18:40:15 10° NNW 18:45:10 81° WSW 18:49:46 10° SSE
Lacrosse 4 Rocket 3.7 18:49:46 10° SE 18:49:46 10° SE 18:49:50 10° SE
Meteor 1-29 2.2 18:45:24 10° S 18:48:05 86° W 18:49:16 30° NNW
Cosmos 1378 4.3 18:46:17 10° SSW 18:49:32 39° W 18:52:45 10° NNW
Cosmos 1302 Rocket 4.2 18:50:06 10° S 18:55:06 47° ESE 18:56:38 36° ENE
Cosmos 1766 Rocket 3.5 18:56:29 10° N 19:00:46 84° W 19:05:05 10° S
CZ-4C R/B 3.1 19:02:21 47° N 19:03:21 82° WNW 19:06:56 10° SSW
ARIANE 5 R/B 2.7 19:01:14 10° W 19:03:47 68° S 19:05:51 34° ESE
GPS 2-18 Rocket1 4.3 19:02:03 10° SW 19:03:24 22° SSW 19:03:24 22° SSW
Cosmos 407 Rocket 3.5 19:00:19 10° NNW 19:05:24 80° WSW 19:10:31 10° S
NOAA 15 4.5 19:01:01 10° SSE 19:06:20 84° ENE 19:11:37 10° N
SL-08 ROCKET BODY 4.2 19:02:13 10° S 19:08:05 89° ENE 19:12:16 20° N
ASTRO E2 3.5 19:04:58 10° SW 19:08:02 36° SSE 19:08:02 36° SSE
Cosmos 2251 Rocket 3.9 19:03:58 10° NNW 19:09:16 66° WSW 19:14:35 10° S
CZ-4B R/B 3.4 19:05:50 10° S 19:10:09 64° WSW 19:14:29 10° NNW
Cosmos 374 Rocket 4.3 19:10:07 10° SSW 19:14:09 86° ESE 19:14:23 79° NE
Okean 1 4.3 19:14:18 10° S 19:16:43 35° SSE 19:16:43 35° SSE
Cosmos 1655 Rocket 4.4 19:18:07 10° SSW 19:24:17 62° W 19:29:16 16° N
Cosmos 2278 Rocket 2.5 19:18:57 10° SSW 19:24:33 64° WNW 19:26:41 37° N
GPS 2-17 Rocket1 3.3 19:21:32 10° WNW 19:25:39 66° NW 19:25:39 66° NW
Ariane 44P Rocket 2.9 19:20:10 10° W 19:26:43 55° WNW 19:26:43 55° WNW
BlueWalker 3 3.5 19:28:31 10° SSW 19:30:40 31° SSW 19:30:40 31° SSW
Cosmos 1190 Rocket 4.1 19:35:39 58° NW 19:36:34 73° WSW 19:41:47 10° S
SeaSat 1 3.3 19:38:24 41° S 19:38:24 41° S 19:41:43 10° SSW
Meteor 1-27 Rocket 4.3 19:32:43 10° SSW 19:38:32 58° W 19:40:43 37° NNW
BLOCK DM-SL R/B 3.9 19:36:16 10° W 19:37:37 31° W 19:37:37 31° W
ARIANE 5 R/B 2.8 19:36:57 10° WNW 19:38:27 35° WNW 19:38:27 35° WNW
Maqsat-B 4.2 19:59:29 10° WSW 20:02:19 40° SSW 20:02:19 40° SSW
Cosmos 1943 Rocket 3.9 20:18:07 10° SW 20:21:30 29° WSW 20:21:30 29° WSW
